Year,Month,Day,Hour,Minute,Value (Times are PST for temperature in C)
2015,10,22,00,00,10.30
2015,10,22,00,01,10.30
2015,10,22,00,02,10.30
2015,10,22,00,03,10.20
2015,10,22,00,04,10.20
2015,10,22,00,05,10.10
2015,10,22,00,06,10.00
2015,10,22,00,07,10.00
2015,10,22,00,08,9.90
2015,10,22,00,09,9.80
2015,10,22,00,10,9.80
2015,10,22,00,11,9.80
2015,10,22,00,12,9.70
2015,10,22,00,13,9.70
2015,10,22,00,14,9.60
2015,10,22,00,15,9.50
2015,10,22,00,16,9.30
2015,10,22,00,17,9.20
2015,10,22,00,18,9.10
2015,10,22,00,19,9.00
2015,10,22,00,20,8.90
2015,10,22,00,21,8.90
2015,10,22,00,22,8.80
2015,10,22,00,23,8.80
2015,10,22,00,24,8.70
2015,10,22,00,25,8.70
2015,10,22,00,26,8.60
2015,10,22,00,27,8.60
2015,10,22,00,28,8.60
2015,10,22,00,29,8.60
2015,10,22,00,30,8.50
2015,10,22,00,31,8.40
2015,10,22,00,32,8.40
2015,10,22,00,33,8.30
2015,10,22,00,34,8.30
2015,10,22,00,35,8.30
2015,10,22,00,36,8.30
2015,10,22,00,37,8.40
2015,10,22,00,38,8.30
2015,10,22,00,39,8.30
2015,10,22,00,40,8.30
2015,10,22,00,41,8.30
2015,10,22,00,42,8.30
2015,10,22,00,43,8.40
2015,10,22,00,44,8.30
2015,10,22,00,45,8.30
2015,10,22,00,46,8.30
2015,10,22,00,47,8.20
2015,10,22,00,48,8.20
2015,10,22,00,49,8.20
2015,10,22,00,50,8.10
2015,10,22,00,51,8.10
2015,10,22,00,52,8.00
2015,10,22,00,53,8.00
2015,10,22,00,54,7.90
2015,10,22,00,55,7.90
2015,10,22,00,56,7.90
2015,10,22,00,57,7.90
2015,10,22,00,58,7.90
2015,10,22,00,59,7.90
2015,10,22,01,00,7.90
2015,10,22,01,01,7.80
2015,10,22,01,02,7.80
2015,10,22,01,03,7.80
2015,10,22,01,04,7.80
2015,10,22,01,05,7.80
2015,10,22,01,06,7.80
2015,10,22,01,07,7.80
2015,10,22,01,08,7.70
2015,10,22,01,09,7.80
2015,10,22,01,10,7.70
2015,10,22,01,11,7.80
2015,10,22,01,12,7.80
2015,10,22,01,13,7.80
2015,10,22,01,14,7.80
2015,10,22,01,15,7.70
2015,10,22,01,16,7.70
2015,10,22,01,17,7.60
2015,10,22,01,18,7.60
2015,10,22,01,19,7.60
2015,10,22,01,20,7.50
2015,10,22,01,21,7.40
2015,10,22,01,22,7.40
2015,10,22,01,23,7.40
2015,10,22,01,24,7.40
2015,10,22,01,25,7.30
2015,10,22,01,26,7.20
2015,10,22,01,27,7.30
2015,10,22,01,28,7.40
2015,10,22,01,29,7.50
2015,10,22,01,30,7.60
2015,10,22,01,31,7.60
2015,10,22,01,32,7.60
2015,10,22,01,33,7.50
2015,10,22,01,34,7.50
2015,10,22,01,35,7.40
2015,10,22,01,36,7.30
2015,10,22,01,37,7.30
2015,10,22,01,38,7.30
2015,10,22,01,39,7.20
2015,10,22,01,40,7.20
2015,10,22,01,41,7.30
2015,10,22,01,42,7.30
2015,10,22,01,43,7.30
2015,10,22,01,44,7.30
2015,10,22,01,45,7.30
2015,10,22,01,46,7.30
2015,10,22,01,47,7.30
2015,10,22,01,48,7.30
2015,10,22,01,49,7.30
2015,10,22,01,50,7.30
2015,10,22,01,51,7.30
2015,10,22,01,52,7.30
2015,10,22,01,53,7.30
2015,10,22,01,54,7.30
2015,10,22,01,55,7.30
2015,10,22,01,56,7.30
2015,10,22,01,57,7.30
2015,10,22,01,58,7.20
2015,10,22,01,59,7.30
2015,10,22,02,00,7.30
2015,10,22,02,01,7.40
2015,10,22,02,02,7.40
2015,10,22,02,03,7.40
2015,10,22,02,04,7.30
2015,10,22,02,05,7.20
2015,10,22,02,06,7.20
2015,10,22,02,07,7.20
2015,10,22,02,08,7.10
2015,10,22,02,09,7.10
2015,10,22,02,10,7.10
2015,10,22,02,11,7.10
2015,10,22,02,12,7.00
2015,10,22,02,13,7.00
2015,10,22,02,14,7.00
2015,10,22,02,15,7.00
2015,10,22,02,16,6.90
2015,10,22,02,17,6.90
2015,10,22,02,18,6.90
2015,10,22,02,19,6.90
2015,10,22,02,20,6.90
2015,10,22,02,21,6.90
2015,10,22,02,22,6.90
2015,10,22,02,23,7.00
2015,10,22,02,24,6.90
2015,10,22,02,25,6.90
2015,10,22,02,26,7.00
2015,10,22,02,27,7.00
2015,10,22,02,28,7.00
2015,10,22,02,29,7.00
2015,10,22,02,30,6.90
2015,10,22,02,31,6.90
2015,10,22,02,32,6.80
2015,10,22,02,33,6.80
2015,10,22,02,34,6.70
2015,10,22,02,35,6.70
2015,10,22,02,36,6.70
2015,10,22,02,37,6.70
2015,10,22,02,38,6.60
2015,10,22,02,39,6.60
2015,10,22,02,40,6.60
2015,10,22,02,41,6.60
2015,10,22,02,42,6.50
2015,10,22,02,43,6.50
2015,10,22,02,44,6.50
2015,10,22,02,45,6.60
2015,10,22,02,46,6.70
2015,10,22,02,47,6.70
2015,10,22,02,48,6.80
2015,10,22,02,49,6.80
2015,10,22,02,50,6.70
2015,10,22,02,51,6.70
2015,10,22,02,52,6.60
2015,10,22,02,53,6.60
2015,10,22,02,54,6.60
2015,10,22,02,55,6.50
2015,10,22,02,56,6.50
2015,10,22,02,57,6.40
2015,10,22,02,58,6.40
2015,10,22,02,59,6.40
2015,10,22,03,00,6.40
2015,10,22,03,01,6.30
2015,10,22,03,02,6.40
2015,10,22,03,03,6.40
2015,10,22,03,04,6.40
2015,10,22,03,05,6.40
2015,10,22,03,06,6.50
2015,10,22,03,07,6.50
2015,10,22,03,08,6.50
2015,10,22,03,09,6.50
2015,10,22,03,10,6.50
2015,10,22,03,11,6.50
2015,10,22,03,12,6.40
2015,10,22,03,13,6.30
2015,10,22,03,14,6.30
2015,10,22,03,15,6.20
2015,10,22,03,16,6.20
2015,10,22,03,17,6.10
2015,10,22,03,18,6.10
2015,10,22,03,19,6.20
2015,10,22,03,20,6.20
2015,10,22,03,21,6.20
2015,10,22,03,22,6.20
2015,10,22,03,23,6.10
2015,10,22,03,24,6.10
2015,10,22,03,25,6.10
2015,10,22,03,26,6.10
2015,10,22,03,27,6.00
2015,10,22,03,28,6.00
2015,10,22,03,29,6.10
2015,10,22,03,30,6.10
2015,10,22,03,31,6.10
2015,10,22,03,32,6.10
2015,10,22,03,33,6.20
2015,10,22,03,34,6.20
2015,10,22,03,35,6.20
2015,10,22,03,36,6.20
2015,10,22,03,37,6.10
2015,10,22,03,38,6.10
2015,10,22,03,39,6.10
2015,10,22,03,40,6.10
2015,10,22,03,41,6.10
2015,10,22,03,42,6.10
2015,10,22,03,43,6.10
2015,10,22,03,44,6.10
2015,10,22,03,45,6.10
2015,10,22,03,46,6.10
2015,10,22,03,47,6.10
2015,10,22,03,48,6.10
2015,10,22,03,49,6.10
2015,10,22,03,50,6.10
2015,10,22,03,51,6.10
2015,10,22,03,52,6.10
2015,10,22,03,53,6.10
2015,10,22,03,54,6.10
2015,10,22,03,55,6.10
2015,10,22,03,56,6.10
2015,10,22,03,57,6.10
2015,10,22,03,58,6.10
2015,10,22,03,59,6.10
2015,10,22,04,00,6.10
2015,10,22,04,01,6.10
2015,10,22,04,02,6.10
2015,10,22,04,03,6.10
2015,10,22,04,04,6.10
2015,10,22,04,05,6.10
2015,10,22,04,06,6.00
2015,10,22,04,07,6.00
2015,10,22,04,08,6.00
2015,10,22,04,09,5.90
2015,10,22,04,10,5.90
2015,10,22,04,11,5.90
2015,10,22,04,12,5.80
2015,10,22,04,13,5.80
2015,10,22,04,14,5.80
2015,10,22,04,15,5.90
2015,10,22,04,16,5.90
2015,10,22,04,17,5.90
2015,10,22,04,18,5.90
2015,10,22,04,19,5.90
2015,10,22,04,20,5.90
2015,10,22,04,21,5.80
2015,10,22,04,22,5.80
2015,10,22,04,23,5.80
2015,10,22,04,24,5.80
2015,10,22,04,25,5.80
2015,10,22,04,26,5.80
2015,10,22,04,27,5.80
2015,10,22,04,28,5.80
2015,10,22,04,29,5.80
2015,10,22,04,30,5.70
2015,10,22,04,31,5.70
2015,10,22,04,32,5.70
2015,10,22,04,33,5.70
2015,10,22,04,34,5.60
2015,10,22,04,35,5.60
2015,10,22,04,36,5.60
2015,10,22,04,37,5.50
2015,10,22,04,38,5.50
2015,10,22,04,39,5.50
2015,10,22,04,40,5.40
2015,10,22,04,41,5.40
2015,10,22,04,42,5.40
2015,10,22,04,43,5.40
2015,10,22,04,44,5.40
2015,10,22,04,45,5.30
2015,10,22,04,46,5.30
2015,10,22,04,47,5.30
2015,10,22,04,48,5.30
2015,10,22,04,49,5.20
2015,10,22,04,50,5.30
2015,10,22,04,51,5.20
2015,10,22,04,52,5.30
2015,10,22,04,53,5.20
2015,10,22,04,54,5.20
2015,10,22,04,55,5.20
2015,10,22,04,56,5.20
2015,10,22,04,57,5.20
2015,10,22,04,58,5.20
2015,10,22,04,59,5.20
2015,10,22,05,00,5.10
2015,10,22,05,01,5.10
2015,10,22,05,02,5.10
2015,10,22,05,03,5.10
2015,10,22,05,04,5.10
2015,10,22,05,05,5.10
2015,10,22,05,06,5.10
2015,10,22,05,07,5.10
2015,10,22,05,08,5.10
2015,10,22,05,09,5.10
2015,10,22,05,10,5.10
2015,10,22,05,11,5.10
2015,10,22,05,12,5.10
2015,10,22,05,13,5.20
2015,10,22,05,14,5.20
2015,10,22,05,15,5.20
2015,10,22,05,16,5.20
2015,10,22,05,17,5.20
2015,10,22,05,18,5.20
2015,10,22,05,19,5.20
2015,10,22,05,20,5.10
2015,10,22,05,21,5.10
2015,10,22,05,22,5.00
2015,10,22,05,23,5.00
2015,10,22,05,24,5.00
2015,10,22,05,25,5.00
2015,10,22,05,26,5.00
2015,10,22,05,27,4.90
2015,10,22,05,28,4.90
2015,10,22,05,29,4.90
2015,10,22,05,30,4.90
2015,10,22,05,31,4.90
2015,10,22,05,32,4.80
2015,10,22,05,33,4.80
2015,10,22,05,34,4.80
2015,10,22,05,35,4.80
2015,10,22,05,36,4.80
2015,10,22,05,37,4.80
2015,10,22,05,38,4.80
2015,10,22,05,39,4.80
2015,10,22,05,40,4.80
2015,10,22,05,41,4.80
2015,10,22,05,42,4.70
2015,10,22,05,43,4.70
2015,10,22,05,44,4.70
2015,10,22,05,45,4.70
2015,10,22,05,46,4.70
2015,10,22,05,47,4.70
2015,10,22,05,48,4.70
2015,10,22,05,49,4.60
2015,10,22,05,50,4.60
2015,10,22,05,51,4.60
2015,10,22,05,52,4.60
2015,10,22,05,53,4.50
2015,10,22,05,54,4.50
2015,10,22,05,55,4.50
2015,10,22,05,56,4.50
2015,10,22,05,57,4.40
2015,10,22,05,58,4.40
2015,10,22,05,59,4.40
2015,10,22,06,00,4.40
2015,10,22,06,01,4.40
2015,10,22,06,02,4.40
2015,10,22,06,03,4.40
2015,10,22,06,04,4.40
2015,10,22,06,05,4.30
2015,10,22,06,06,4.30
2015,10,22,06,07,4.30
2015,10,22,06,08,4.30
2015,10,22,06,09,4.30
2015,10,22,06,10,4.30
2015,10,22,06,11,4.30
2015,10,22,06,12,4.30
2015,10,22,06,13,4.40
2015,10,22,06,14,4.40
2015,10,22,06,15,4.40
2015,10,22,06,16,4.40
2015,10,22,06,17,4.50
2015,10,22,06,18,4.50
2015,10,22,06,19,4.50
2015,10,22,06,20,4.50
2015,10,22,06,21,4.50
2015,10,22,06,22,4.50
2015,10,22,06,23,4.40
2015,10,22,06,24,4.40
2015,10,22,06,25,4.40
2015,10,22,06,26,4.40
2015,10,22,06,27,4.40
2015,10,22,06,28,4.40
2015,10,22,06,29,4.40
2015,10,22,06,30,4.30
2015,10,22,06,31,4.30
2015,10,22,06,32,4.30
2015,10,22,06,33,4.30
2015,10,22,06,34,4.30
2015,10,22,06,35,4.30
2015,10,22,06,36,4.30
2015,10,22,06,37,4.30
2015,10,22,06,38,4.30
2015,10,22,06,39,4.30
2015,10,22,06,40,4.20
2015,10,22,06,41,4.20
2015,10,22,06,42,4.20
2015,10,22,06,43,4.20
2015,10,22,06,44,4.20
2015,10,22,06,45,4.20
2015,10,22,06,46,4.20
2015,10,22,06,47,4.20
2015,10,22,06,48,4.20
2015,10,22,06,49,4.20
2015,10,22,06,50,4.30
2015,10,22,06,51,4.40
2015,10,22,06,52,4.50
2015,10,22,06,53,4.50
2015,10,22,06,54,4.60
2015,10,22,06,55,4.60
2015,10,22,06,56,4.60
2015,10,22,06,57,4.60
2015,10,22,06,58,4.60
2015,10,22,06,59,4.60
2015,10,22,07,00,4.60
2015,10,22,07,01,4.50
2015,10,22,07,02,4.50
2015,10,22,07,03,4.50
2015,10,22,07,04,4.40
2015,10,22,07,05,4.40
2015,10,22,07,06,4.40
2015,10,22,07,07,4.30
2015,10,22,07,08,4.30
2015,10,22,07,09,4.30
2015,10,22,07,10,4.20
2015,10,22,07,11,4.20
2015,10,22,07,12,4.20
2015,10,22,07,13,4.20
2015,10,22,07,14,4.10
2015,10,22,07,15,4.10
2015,10,22,07,16,4.10
2015,10,22,07,17,4.10
2015,10,22,07,18,4.00
2015,10,22,07,19,4.00
2015,10,22,07,20,4.00
2015,10,22,07,21,4.00
2015,10,22,07,22,4.00
2015,10,22,07,23,4.00
2015,10,22,07,24,4.00
2015,10,22,07,25,4.10
2015,10,22,07,26,4.10
2015,10,22,07,27,4.20
2015,10,22,07,28,4.20
2015,10,22,07,29,4.20
2015,10,22,07,30,4.30
2015,10,22,07,31,4.30
2015,10,22,07,32,4.30
2015,10,22,07,33,4.20
2015,10,22,07,34,4.20
2015,10,22,07,35,4.20
2015,10,22,07,36,4.20
2015,10,22,07,37,4.20
2015,10,22,07,38,4.20
2015,10,22,07,39,4.20
2015,10,22,07,40,4.10
2015,10,22,07,41,4.10
2015,10,22,07,42,4.10
2015,10,22,07,43,4.10
2015,10,22,07,44,4.00
2015,10,22,07,45,4.00
2015,10,22,07,46,4.00
2015,10,22,07,47,4.00
2015,10,22,07,48,4.00
2015,10,22,07,49,3.90
2015,10,22,07,50,3.90
2015,10,22,07,51,3.90
2015,10,22,07,52,3.90
2015,10,22,07,53,3.90
2015,10,22,07,54,3.90
2015,10,22,07,55,3.90
2015,10,22,07,56,3.90
2015,10,22,07,57,3.90
2015,10,22,07,58,3.90
2015,10,22,07,59,3.90
2015,10,22,08,00,3.90
2015,10,22,08,01,3.90
2015,10,22,08,02,3.90
2015,10,22,08,03,4.00
2015,10,22,08,04,4.00
2015,10,22,08,05,4.00
2015,10,22,08,06,4.10
2015,10,22,08,07,4.10
2015,10,22,08,08,4.10
2015,10,22,08,09,4.20
2015,10,22,08,10,4.20
2015,10,22,08,11,4.30
2015,10,22,08,12,4.30
2015,10,22,08,13,4.40
2015,10,22,08,14,4.40
2015,10,22,08,15,4.50
2015,10,22,08,16,4.60
2015,10,22,08,17,4.60
2015,10,22,08,18,4.70
2015,10,22,08,19,4.70
2015,10,22,08,20,4.70
2015,10,22,08,21,4.80
2015,10,22,08,22,4.90
2015,10,22,08,23,4.90
2015,10,22,08,24,4.90
2015,10,22,08,25,5.00
2015,10,22,08,26,5.10
2015,10,22,08,27,5.10
2015,10,22,08,28,5.20
2015,10,22,08,29,5.20
2015,10,22,08,30,5.20
2015,10,22,08,31,5.20
2015,10,22,08,32,5.30
2015,10,22,08,33,5.30
2015,10,22,08,34,5.30
2015,10,22,08,35,5.30
2015,10,22,08,36,5.30
2015,10,22,08,37,5.30
2015,10,22,08,38,5.30
2015,10,22,08,39,5.40
2015,10,22,08,40,5.40
2015,10,22,08,41,5.50
2015,10,22,08,42,5.50
2015,10,22,08,43,5.50
2015,10,22,08,44,5.50
2015,10,22,08,45,5.60
2015,10,22,08,46,5.60
2015,10,22,08,47,5.70
2015,10,22,08,48,5.70
2015,10,22,08,49,5.70
2015,10,22,08,50,5.80
2015,10,22,08,51,5.80
2015,10,22,08,52,5.80
2015,10,22,08,53,5.80
2015,10,22,08,54,5.80
2015,10,22,08,55,5.90
2015,10,22,08,56,5.90
2015,10,22,08,57,5.90
2015,10,22,08,58,5.90
2015,10,22,08,59,5.90
2015,10,22,09,00,5.90
2015,10,22,09,01,5.90
2015,10,22,09,02,5.90
2015,10,22,09,03,6.00
2015,10,22,09,04,6.00
2015,10,22,09,05,6.10
2015,10,22,09,06,6.20
2015,10,22,09,07,6.20
2015,10,22,09,08,6.30
2015,10,22,09,09,6.30
2015,10,22,09,10,6.30
2015,10,22,09,11,6.30
2015,10,22,09,12,6.40
2015,10,22,09,13,6.40
2015,10,22,09,14,6.50
2015,10,22,09,15,6.60
2015,10,22,09,16,6.60
2015,10,22,09,17,6.70
2015,10,22,09,18,6.70
2015,10,22,09,19,6.80
2015,10,22,09,20,6.80
2015,10,22,09,21,6.90
2015,10,22,09,22,7.00
2015,10,22,09,23,7.00
2015,10,22,09,24,7.10
2015,10,22,09,25,7.20
2015,10,22,09,26,7.20
2015,10,22,09,27,7.30
2015,10,22,09,28,7.30
2015,10,22,09,29,7.30
2015,10,22,09,30,7.40
2015,10,22,09,31,7.40
2015,10,22,09,32,7.40
2015,10,22,09,33,7.50
2015,10,22,09,34,7.50
2015,10,22,09,35,7.60
2015,10,22,09,36,7.70
2015,10,22,09,37,7.70
2015,10,22,09,38,7.80
2015,10,22,09,39,7.80
2015,10,22,09,40,7.90
2015,10,22,09,41,8.00
2015,10,22,09,42,8.10
2015,10,22,09,43,8.10
2015,10,22,09,44,8.20
2015,10,22,09,45,8.20
2015,10,22,09,46,8.30
2015,10,22,09,47,8.30
2015,10,22,09,48,8.30
2015,10,22,09,49,8.30
2015,10,22,09,50,8.30
2015,10,22,09,51,8.40
2015,10,22,09,52,8.40
2015,10,22,09,53,8.50
2015,10,22,09,54,8.50
2015,10,22,09,55,8.60
2015,10,22,09,56,8.60
2015,10,22,09,57,8.70
2015,10,22,09,58,8.70
2015,10,22,09,59,8.70
2015,10,22,10,00,8.80
2015,10,22,10,01,8.90
2015,10,22,10,02,8.90
2015,10,22,10,03,9.00
2015,10,22,10,04,9.00
2015,10,22,10,05,9.10
2015,10,22,10,06,9.20
2015,10,22,10,07,9.20
2015,10,22,10,08,9.30
2015,10,22,10,09,9.30
2015,10,22,10,10,9.40
2015,10,22,10,11,9.50
2015,10,22,10,12,9.60
2015,10,22,10,13,9.70
2015,10,22,10,14,9.70
2015,10,22,10,15,9.80
2015,10,22,10,16,9.90
2015,10,22,10,17,10.00
2015,10,22,10,18,10.10
2015,10,22,10,19,10.20
2015,10,22,10,20,10.40
2015,10,22,10,21,10.50
2015,10,22,10,22,10.70
2015,10,22,10,23,10.80
2015,10,22,10,24,11.00
2015,10,22,10,25,11.20
2015,10,22,10,26,11.30
2015,10,22,10,27,11.40
2015,10,22,10,28,11.50
2015,10,22,10,29,11.50
2015,10,22,10,30,11.60
2015,10,22,10,31,11.60
2015,10,22,10,32,11.60
2015,10,22,10,33,11.60
2015,10,22,10,34,11.70
2015,10,22,10,35,11.80
2015,10,22,10,36,12.00
2015,10,22,10,37,12.00
2015,10,22,10,38,12.10
2015,10,22,10,39,12.20
2015,10,22,10,40,12.20
2015,10,22,10,41,12.20
2015,10,22,10,42,12.20
2015,10,22,10,43,12.20
2015,10,22,10,44,12.30
2015,10,22,10,45,12.30
2015,10,22,10,46,12.40
2015,10,22,10,47,12.50
2015,10,22,10,48,12.60
2015,10,22,10,49,12.60
2015,10,22,10,50,12.70
2015,10,22,10,51,12.60
2015,10,22,10,52,12.60
2015,10,22,10,53,12.60
2015,10,22,10,54,12.60
2015,10,22,10,55,12.60
2015,10,22,10,56,12.60
2015,10,22,10,57,12.60
2015,10,22,10,58,12.60
2015,10,22,10,59,12.60
2015,10,22,11,00,12.60
2015,10,22,11,01,12.60
2015,10,22,11,02,12.70
2015,10,22,11,03,12.70
2015,10,22,11,04,12.60
2015,10,22,11,05,12.60
2015,10,22,11,06,12.60
2015,10,22,11,07,12.60
2015,10,22,11,08,12.70
2015,10,22,11,09,12.70
2015,10,22,11,10,12.80
2015,10,22,11,11,12.80
2015,10,22,11,12,12.80
2015,10,22,11,13,12.90
2015,10,22,11,14,12.90
2015,10,22,11,15,12.90
2015,10,22,11,16,12.90
2015,10,22,11,17,13.00
2015,10,22,11,18,13.00
2015,10,22,11,19,13.00
2015,10,22,11,20,13.00
2015,10,22,11,21,13.10
2015,10,22,11,22,13.10
2015,10,22,11,23,13.10
2015,10,22,11,24,13.10
2015,10,22,11,25,13.10
2015,10,22,11,26,13.10
2015,10,22,11,27,13.10
2015,10,22,11,28,13.10
2015,10,22,11,29,13.10
2015,10,22,11,30,13.10
2015,10,22,11,31,13.20
2015,10,22,11,32,13.20
2015,10,22,11,33,13.20
2015,10,22,11,34,13.30
2015,10,22,11,35,13.30
2015,10,22,11,36,13.30
2015,10,22,11,37,13.30
2015,10,22,11,38,13.30
2015,10,22,11,39,13.30
2015,10,22,11,40,13.30
2015,10,22,11,41,13.40
2015,10,22,11,42,13.40
2015,10,22,11,43,13.50
2015,10,22,11,44,13.50
2015,10,22,11,45,13.60
2015,10,22,11,46,13.60
2015,10,22,11,47,13.60
2015,10,22,11,48,13.60
2015,10,22,11,49,13.60
2015,10,22,11,50,13.60
2015,10,22,11,51,13.60
2015,10,22,11,52,13.60
2015,10,22,11,53,13.60
2015,10,22,11,54,13.60
2015,10,22,11,55,13.50
2015,10,22,11,56,13.60
2015,10,22,11,57,13.60
2015,10,22,11,58,13.70
2015,10,22,11,59,13.70
2015,10,22,12,00,13.80
2015,10,22,12,01,13.90
2015,10,22,12,02,14.00
2015,10,22,12,03,14.10
2015,10,22,12,04,14.10
2015,10,22,12,05,14.10
2015,10,22,12,06,14.20
2015,10,22,12,07,14.20
2015,10,22,12,08,14.30
2015,10,22,12,09,14.30
2015,10,22,12,10,14.30
2015,10,22,12,11,14.30
2015,10,22,12,12,14.30
2015,10,22,12,13,14.40
2015,10,22,12,14,14.40
2015,10,22,12,15,14.40
2015,10,22,12,16,14.40
2015,10,22,12,17,14.40
2015,10,22,12,18,14.40
2015,10,22,12,19,14.50
2015,10,22,12,20,14.50
2015,10,22,12,21,14.60
2015,10,22,12,22,14.70
2015,10,22,12,23,14.70
2015,10,22,12,24,14.70
2015,10,22,12,25,14.70
2015,10,22,12,26,14.70
2015,10,22,12,27,14.70
2015,10,22,12,28,14.70
2015,10,22,12,29,14.60
2015,10,22,12,30,14.70
2015,10,22,12,31,14.70
2015,10,22,12,32,14.80
2015,10,22,12,33,14.80
2015,10,22,12,34,14.80
2015,10,22,12,35,14.80
2015,10,22,12,36,14.80
2015,10,22,12,37,14.80
2015,10,22,12,38,14.80
2015,10,22,12,39,14.90
2015,10,22,12,40,14.90
2015,10,22,12,41,14.90
2015,10,22,12,42,14.90
2015,10,22,12,43,14.90
2015,10,22,12,44,14.90
2015,10,22,12,45,14.90
2015,10,22,12,46,14.90
2015,10,22,12,47,14.80
2015,10,22,12,48,14.70
2015,10,22,12,49,14.70
2015,10,22,12,50,14.80
2015,10,22,12,51,14.80
2015,10,22,12,52,14.90
2015,10,22,12,53,15.00
2015,10,22,12,54,15.00
2015,10,22,12,55,15.00
2015,10,22,12,56,14.90
2015,10,22,12,57,14.80
2015,10,22,12,58,14.80
2015,10,22,12,59,14.80
2015,10,22,13,00,14.90
2015,10,22,13,01,14.90
2015,10,22,13,02,14.90
2015,10,22,13,03,14.90
2015,10,22,13,04,14.90
2015,10,22,13,05,14.90
2015,10,22,13,06,14.80
2015,10,22,13,07,14.80
2015,10,22,13,08,14.70
2015,10,22,13,09,14.60
2015,10,22,13,10,14.50
2015,10,22,13,11,14.40
2015,10,22,13,12,14.30
2015,10,22,13,13,14.30
2015,10,22,13,14,14.30
2015,10,22,13,15,14.40
2015,10,22,13,16,14.50
2015,10,22,13,17,14.60
2015,10,22,13,18,14.80
2015,10,22,13,19,14.80
2015,10,22,13,20,14.90
2015,10,22,13,21,15.00
2015,10,22,13,22,15.10
2015,10,22,13,23,15.10
2015,10,22,13,24,15.00
2015,10,22,13,25,14.90
2015,10,22,13,26,14.80
2015,10,22,13,27,14.80
2015,10,22,13,28,14.80
2015,10,22,13,29,14.80
2015,10,22,13,30,14.80
2015,10,22,13,31,14.80
2015,10,22,13,32,14.80
2015,10,22,13,33,14.70
2015,10,22,13,34,14.70
2015,10,22,13,35,14.60
2015,10,22,13,36,14.60
2015,10,22,13,37,14.60
2015,10,22,13,38,14.60
2015,10,22,13,39,14.50
2015,10,22,13,40,14.40
2015,10,22,13,41,14.40
2015,10,22,13,42,14.40
2015,10,22,13,43,14.30
2015,10,22,13,44,14.30
2015,10,22,13,45,14.30
2015,10,22,13,46,14.20
2015,10,22,13,47,14.20
2015,10,22,13,48,14.20
2015,10,22,13,49,14.20
2015,10,22,13,50,14.10
2015,10,22,13,51,14.10
2015,10,22,13,52,14.10
2015,10,22,13,53,14.00
2015,10,22,13,54,14.00
2015,10,22,13,55,13.90
2015,10,22,13,56,13.90
2015,10,22,13,57,13.90
2015,10,22,13,58,13.90
2015,10,22,13,59,13.80
2015,10,22,14,00,13.80
2015,10,22,14,01,13.80
2015,10,22,14,02,13.80
2015,10,22,14,03,13.80
2015,10,22,14,04,13.90
2015,10,22,14,05,13.90
2015,10,22,14,06,13.90
2015,10,22,14,07,13.90
2015,10,22,14,08,14.00
2015,10,22,14,09,14.00
2015,10,22,14,10,14.00
2015,10,22,14,11,13.90
2015,10,22,14,12,13.90
2015,10,22,14,13,13.80
2015,10,22,14,14,13.80
2015,10,22,14,15,13.80
2015,10,22,14,16,13.80
2015,10,22,14,17,13.70
2015,10,22,14,18,13.70
2015,10,22,14,19,13.80
2015,10,22,14,20,13.80
2015,10,22,14,21,13.80
2015,10,22,14,22,13.70
2015,10,22,14,23,13.70
2015,10,22,14,24,13.70
2015,10,22,14,25,13.70
2015,10,22,14,26,13.70
2015,10,22,14,27,13.80
2015,10,22,14,28,13.70
2015,10,22,14,29,13.70
2015,10,22,14,30,13.70
2015,10,22,14,31,13.60
2015,10,22,14,32,13.60
2015,10,22,14,33,13.60
2015,10,22,14,34,13.60
2015,10,22,14,35,13.60
2015,10,22,14,36,13.60
2015,10,22,14,37,13.70
2015,10,22,14,38,13.70
2015,10,22,14,39,13.70
2015,10,22,14,40,13.70
2015,10,22,14,41,13.70
2015,10,22,14,42,13.80
2015,10,22,14,43,13.80
2015,10,22,14,44,13.80
2015,10,22,14,45,13.80
2015,10,22,14,46,13.80
2015,10,22,14,47,13.90
2015,10,22,14,48,13.90
2015,10,22,14,49,14.00
2015,10,22,14,50,14.00
2015,10,22,14,51,14.10
2015,10,22,14,52,14.20
2015,10,22,14,53,14.20
2015,10,22,14,54,14.20
2015,10,22,14,55,14.10
2015,10,22,14,56,14.10
2015,10,22,14,57,14.10
2015,10,22,14,58,14.10
2015,10,22,14,59,14.10
2015,10,22,15,00,14.20
2015,10,22,15,01,14.20
2015,10,22,15,02,14.20
2015,10,22,15,03,14.10
2015,10,22,15,04,14.10
2015,10,22,15,05,14.10
2015,10,22,15,06,14.00
2015,10,22,15,07,14.10
2015,10,22,15,08,14.10
2015,10,22,15,09,14.10
2015,10,22,15,10,14.10
2015,10,22,15,11,14.10
2015,10,22,15,12,14.20
2015,10,22,15,13,14.20
2015,10,22,15,14,14.20
2015,10,22,15,15,14.20
2015,10,22,15,16,14.20
2015,10,22,15,17,14.20
2015,10,22,15,18,14.20
2015,10,22,15,19,14.20
2015,10,22,15,20,14.20
2015,10,22,15,21,14.30
2015,10,22,15,22,14.30
2015,10,22,15,23,14.20
2015,10,22,15,24,14.20
2015,10,22,15,25,14.20
2015,10,22,15,26,14.10
2015,10,22,15,27,14.10
2015,10,22,15,28,14.00
2015,10,22,15,29,13.90
2015,10,22,15,30,13.90
2015,10,22,15,31,14.00
2015,10,22,15,32,14.00
2015,10,22,15,33,14.00
2015,10,22,15,34,13.90
2015,10,22,15,35,13.90
2015,10,22,15,36,13.80
2015,10,22,15,37,13.80
2015,10,22,15,38,13.70
2015,10,22,15,39,13.70
2015,10,22,15,40,13.60
2015,10,22,15,41,13.60
2015,10,22,15,42,13.60
2015,10,22,15,43,13.60
2015,10,22,15,44,13.60
2015,10,22,15,45,13.60
2015,10,22,15,46,13.60
2015,10,22,15,47,13.60
2015,10,22,15,48,13.60
2015,10,22,15,49,13.60
2015,10,22,15,50,13.70
2015,10,22,15,51,13.70
2015,10,22,15,52,13.70
2015,10,22,15,53,13.80
2015,10,22,15,54,13.80
2015,10,22,15,55,13.80
2015,10,22,15,56,13.80
2015,10,22,15,57,13.80
2015,10,22,15,58,13.80
2015,10,22,15,59,13.80
2015,10,22,16,00,13.80
2015,10,22,16,01,13.70
2015,10,22,16,02,13.70
2015,10,22,16,03,13.70
2015,10,22,16,04,13.70
2015,10,22,16,05,13.70
2015,10,22,16,06,13.70
2015,10,22,16,07,13.70
2015,10,22,16,08,13.70
2015,10,22,16,09,13.70
2015,10,22,16,10,13.60
2015,10,22,16,11,13.60
2015,10,22,16,12,13.60
2015,10,22,16,13,13.60
2015,10,22,16,14,13.60
2015,10,22,16,15,13.60
2015,10,22,16,16,13.60
2015,10,22,16,17,13.60
2015,10,22,16,18,13.60
2015,10,22,16,19,13.60
2015,10,22,16,20,13.60
2015,10,22,16,21,13.60
2015,10,22,16,22,13.60
2015,10,22,16,23,13.60
2015,10,22,16,24,13.60
2015,10,22,16,25,13.60
2015,10,22,16,26,13.50
2015,10,22,16,27,13.50
2015,10,22,16,28,13.50
2015,10,22,16,29,13.50
2015,10,22,16,30,13.50
2015,10,22,16,31,13.50
2015,10,22,16,32,13.50
2015,10,22,16,33,13.50
2015,10,22,16,34,13.50
2015,10,22,16,35,13.60
2015,10,22,16,36,13.60
2015,10,22,16,37,13.60
2015,10,22,16,38,13.60
2015,10,22,16,39,13.60
2015,10,22,16,40,13.60
2015,10,22,16,41,13.60
2015,10,22,16,42,13.60
2015,10,22,16,43,13.60
2015,10,22,16,44,13.50
2015,10,22,16,45,13.50
2015,10,22,16,46,13.50
2015,10,22,16,47,13.40
2015,10,22,16,48,13.40
2015,10,22,16,49,13.30
2015,10,22,16,50,13.30
2015,10,22,16,51,13.30
2015,10,22,16,52,13.30
2015,10,22,16,53,13.20
2015,10,22,16,54,13.20
2015,10,22,16,55,13.20
2015,10,22,16,56,13.20
2015,10,22,16,57,13.20
2015,10,22,16,58,13.20
2015,10,22,16,59,13.20
2015,10,22,17,00,13.20
2015,10,22,17,01,13.20
2015,10,22,17,02,13.20
2015,10,22,17,03,13.20
2015,10,22,17,04,13.20
2015,10,22,17,05,13.20
2015,10,22,17,06,13.10
2015,10,22,17,07,13.10
2015,10,22,17,08,13.10
2015,10,22,17,09,13.00
2015,10,22,17,10,13.00
2015,10,22,17,11,12.90
2015,10,22,17,12,12.90
2015,10,22,17,13,12.90
2015,10,22,17,14,12.90
2015,10,22,17,15,12.80
2015,10,22,17,16,12.80
2015,10,22,17,17,12.80
2015,10,22,17,18,12.80
2015,10,22,17,19,12.80
2015,10,22,17,20,12.70
2015,10,22,17,21,12.70
2015,10,22,17,22,12.70
2015,10,22,17,23,12.70
2015,10,22,17,24,12.70
2015,10,22,17,25,12.60
2015,10,22,17,26,12.60
2015,10,22,17,27,12.60
2015,10,22,17,28,12.60
2015,10,22,17,29,12.60
2015,10,22,17,30,12.50
2015,10,22,17,31,12.50
2015,10,22,17,32,12.50
2015,10,22,17,33,12.40
2015,10,22,17,34,12.40
2015,10,22,17,35,12.40
2015,10,22,17,36,12.40
2015,10,22,17,37,12.40
2015,10,22,17,38,12.40
2015,10,22,17,39,12.30
2015,10,22,17,40,12.30
2015,10,22,17,41,12.30
2015,10,22,17,42,12.30
2015,10,22,17,43,12.30
2015,10,22,17,44,12.30
2015,10,22,17,45,12.30